Home   Weather   Igloolik   Past weeks

Flag for Canada Past Weather in Igloolik, Nunavut, Canada — Yesterday and Last 2 Weeks

Now
-22 °F

Clear.


Feels Like: -42 °F
Forecast: -29 / -8 °F
Wind: 9 mph from Northwest

Location: Hall Beach

Current Time: Jan 21, 2017 at 8:40:39 am

Latest Report: Jan 21, 2017 at 8:00 am


Visibility: 15 mi

Pressure: 30.27 "Hg

Humidity: 68%

Dew Point: -29 °F

Location of IgloolikLocation

Past Weather in Igloolik — Graph

°F

Igloolik Temperature Yesterday

Maximum temperature yesterday: -24 °F (at 9:00 pm)
Minimum temperature yesterday: -33 °F (at 12:00 am)
Average temperature yesterday: -29 °F

High & Low Weather Summary for the Past Weeks

 TemperatureHumidityPressure
High3 °F (Jan 17, 10:00 am)92% (Jan 17, 1:06 pm)30.28 "Hg (Jan 17, 1:06 pm)
Low-42 °F (Jan 11, 4:00 am)51% (Jan 11, 11:00 am)28.98 "Hg (Jan 17, 7:00 pm)
Average-22 °F72%29.71 "Hg
* Reported Jan 6 7:00 am — Jan 21 7:00 am, Igloolik, Weather by CustomWeather, © 2017

Note: Actual official high and low records may vary slightly from our data, if they occured in-between our weather recording intervals... More about our weather records

Advertising

Igloolik Weather History for the Previous 24 Hours

Scroll right to see more
 ConditionsComfort  
Time TempWeatherWind HumidityBarometerVisibility
7:00 am
Sat, Jan 21
-26 °FClear.12 mph67%30.28 "Hg15 mi
6:00 am-26 °FClear.6 mph67%30.27 "Hg9 mi
5:00 am-26 °FClear.12 mph67%30.28 "Hg9 mi
4:00 am-26 °FClear.13 mph67%30.28 "Hg9 mi
3:00 am-26 °FClear.10 mph67%30.27 "Hg9 mi
2:00 am-26 °FClear.6 mph67%30.26 "Hg9 mi
1:00 am-24 °FClear.13 mph68%30.26 "Hg9 mi
12:00 am-24 °FClear.14 mph68%30.27 "Hg9 mi
11:00 pm
Fri, Jan 20
-24 °FClear.16 mph75%30.26 "Hg9 mi
10:00 pm-24 °FClear.15 mph68%30.25 "Hg9 mi
9:28 pm-26 °FClear.15 mph67%30.25 "Hg9 mi
9:11 pm-26 °FLight snow. Clear.10 mph67%30.26 "Hg9 mi
9:00 pm-24 °FClear.13 mph68%30.25 "Hg9 mi
8:00 pm-27 °FClear.12 mph67%30.25 "Hg9 mi
7:00 pm-26 °FClear.16 mph67%30.25 "Hg15 mi
6:00 pm-27 °FClear.13 mph67%30.26 "Hg15 mi
5:00 pm-29 °FClear.13 mph67%30.25 "Hg15 mi
4:00 pm-27 °FClear.14 mph67%30.24 "Hg15 mi
3:00 pm-26 °FClear.17 mph67%30.25 "Hg15 mi
2:00 pm-27 °FSunny.12 mph67%30.24 "Hg15 mi
1:00 pm-27 °FSunny.14 mph67%30.23 "Hg15 mi
12:00 pm-29 °FSunny.14 mph67%30.22 "Hg15 mi
11:00 am-29 °FSunny.12 mph67%30.23 "Hg15 mi
10:00 am-29 °FClear.9 mph67%30.24 "Hg15 mi
9:00 am-27 °FClear.17 mph67%30.24 "Hg15 mi
8:00 am-31 °FClear.12 mph67%30.24 "Hg15 mi
Weather by CustomWeather, © 2017

See weather overviewHow to use our weather pages